EW6378 Weather Reports


time (UTC)temp
C
wind
direction
speed
KPH
gust
KPH
rain 1hr
cm
rain 24hr
cm
rain mn
cm
humidity
%
barometer
mb
20260507080103 12 0 0.0 4.8 0.00 0.46 0.10 100 1011.3
20260507075558 12 0 0.0 4.8 0.00 0.46 0.10 100 1011.2
20260507075058 12 0 0.0 4.8 0.00 0.46 0.10 100 1011.0
20260507074556 12 0 0.0 4.8 0.00 0.46 0.10 100 1010.8
20260507074057 12 0 0.0 9.7 0.00 0.46 0.10 100 1011.0
20260507073557 13 0 0.0 9.7 0.00 0.46 0.10 100 1010.9
20260507073113 12 0 0.0 9.7 0.00 0.46 0.10 100 1011.0
20260507072558 12 0 0.0 4.8 0.00 0.46 0.10 100 1011.0
20260507072058 12 0 0.0 4.8 0.00 0.46 0.10 100 1010.7
20260507071559 12 0 0.0 4.8 0.00 0.46 0.10 100 1010.6
20260507071058 12 0 0.0 4.8 0.03 0.46 0.10 100 1010.6
20260507070558 13 0 0.0 3.2 0.03 0.46 0.10 100 1010.6
20260507070138 13 0 0.0 3.2 0.03 0.46 0.10 100 1010.6
20260507065559 13 319 0.0 1.6 0.03 0.46 0.10 100 1010.8
20260507065057 13 0 0.0 1.6 0.03 0.46 0.10 100 1010.8
20260507064557 13 0 0.0 1.6 0.03 0.46 0.10 100 1010.9
20260507064058 13 0 0.0 0.0 0.03 0.46 0.10 100 1010.6
20260507063558 13 0 0.0 0.0 0.03 0.46 0.10 100 1010.5
20260507063101 13 0 0.0 0.0 0.05 0.46 0.10 100 1010.2
20260507062557 13 0 0.0 3.2 0.08 0.46 0.10 100 1010.4
20260507062059 13 0 0.0 3.2 0.10 0.46 0.10 100 1010.4
20260507061559 13 0 0.0 3.2 0.10 0.46 0.10 100 1010.6
20260507061056 13 0 0.0 3.2 0.08 0.43 0.08 100 1010.8
20260507060554 13 0 0.0 3.2 0.08 0.43 0.08 100 1010.7
20260507060100 13 0 0.0 1.6 0.08 0.43 0.08 100 1010.8
20260507055557 13 0 0.0 4.8 0.08 0.43 0.08 100 1010.9
20260507055059 13 0 0.0 4.8 0.08 0.43 0.08 100 1010.7
20260507054608 14 0 0.0 3.2 0.08 0.43 0.08 100 1010.7
20260507054057 14 0 0.0 3.2 0.08 0.43 0.08 100 1010.8
20260507053557 14 0 0.0 3.2 0.08 0.43 0.08 100 1010.7
20260507053058 15 0 0.0 1.6 0.05 0.41 0.05 100 1010.9
20260507052558 15 0 0.0 6.4 0.03 0.38 0.03 100 1010.7
20260507052057 15 0 0.0 6.4 0.00 0.36 0.00 100 1011.1
20260507051556 16 300 0.0 4.8 0.00 0.36 0.00 11 1010.9
20260507051058 16 0 0.0 4.8 0.00 0.36 0.00 18 1010.9
20260507050556 16 0 0.0 4.8 0.00 0.36 0.00 21 1011.2
20260507050056 16 0 0.0 4.8 0.00 0.36 0.00 25 1010.8
20260507045601 16 0 0.0 4.8 0.00 0.36 0.00 31 1010.6
20260507045058 16 285 0.0 3.2 0.00 0.36 0.00 32 1010.5
20260507044603 17 0 0.0 6.4 0.00 0.36 0.00 32 1010.7
20260507044058 17 0 0.0 6.4 0.00 0.36 0.00 34 1010.5
20260507043557 17 0 0.0 6.4 0.00 0.36 0.00 34 1010.4
20260507043055 17 259 0.0 6.4 0.00 0.36 0.00 18 1010.7
20260507042557 17 0 0.0 0.0 0.00 0.36 0.00 9 1010.5
20260507042056 17 0 0.0 0.0 0.00 0.36 0.00 2 1010.3
20260507041556 17 0 0.0 0.0 0.00 0.36 0.00 100 1010.2
20260507041057 17 0 0.0 0.0 0.00 0.36 0.00 2 1010.1
20260507040601 17 0 0.0 0.0 0.00 0.36 0.00 5 1009.8
20260507040055 17 0 0.0 0.0 0.00 0.36 0.00 7 1009.8
20260507035557 17 0 0.0 0.0 0.00 0.36 0.36 10 1009.7
20260507035057 17 0 0.0 0.0 0.00 0.36 0.36 12 1010.0
20260507034601 17 0 0.0 0.0 0.00 0.36 0.36 13 1010.1
20260507034057 18 0 0.0 0.0 0.00 0.36 0.36 14 1010.3
20260507033557 18 0 0.0 0.0 0.00 0.36 0.36 17 1010.3
20260507033055 18 0 0.0 0.0 0.00 0.36 0.36 21 1010.1
20260507032558 18 0 0.0 0.0 0.00 0.36 0.36 23 1010.0
20260507032057 18 0 0.0 0.0 0.00 0.36 0.36 27 1010.0
20260507031557 18 0 0.0 0.0 0.00 0.36 0.36 29 1010.0
20260507031103 18 0 0.0 1.6 0.00 0.36 0.36 31 1009.9
20260507030557 18 0 0.0 1.6 0.00 0.36 0.36 30 1009.8
20260507030106 18 0 0.0 1.6 0.00 0.36 0.36 33 1009.8
20260507025556 19 0 0.0 1.6 0.00 0.36 0.36 25 1009.9
20260507025057 19 0 0.0 1.6 0.00 0.36 0.36 11 1009.8
20260507024605 19 0 0.0 1.6 0.00 0.36 0.36 8 1009.8
20260507024100 19 0 0.0 4.8 0.00 0.36 0.36 100 1009.5
20260507023559 19 0 0.0 4.8 0.00 0.36 0.36 100 1009.4
20260507023055 19 0 0.0 4.8 0.00 0.36 0.36 100 1009.4
20260507022557 19 0 0.0 0.0 0.00 0.36 0.36 100 1009.3
20260507022058 19 0 0.0 0.0 0.00 0.36 0.36 100 1009.3
20260507021616 19 0 0.0 0.0 0.00 0.36 0.36 100 1009.2
20260507021057 19 0 0.0 0.0 0.00 0.36 0.36 100 1009.3
20260507020557 19 0 0.0 0.0 0.00 0.36 0.36 100 1009.2
20260507020106 19 0 0.0 0.0 0.00 0.36 0.36 100 1009.1
20260507015558 19 0 0.0 0.0 0.00 0.36 0.36 100 1009.1
20260507015100 19 0 0.0 0.0 0.00 0.36 0.36 100 1009.2
20260507014614 19 0 0.0 0.0 0.00 0.36 0.36 100 1009.4
20260507014057 20 0 0.0 0.0 0.00 0.36 0.36 100 1009.4
20260507013556 20 0 0.0 0.0 0.00 0.36 0.36 100 1009.5
20260507013056 20 0 0.0 0.0 0.00 0.36 0.36 100 1009.4
20260507012603 20 0 0.0 0.0 0.00 0.36 0.36 100 1009.3
20260507012057 20 0 0.0 0.0 0.00 0.36 0.36 100 1009.6
20260507011555 20 0 0.0 0.0 0.00 0.36 0.36 100 1009.6
20260507011058 20 0 0.0 0.0 0.00 0.36 0.36 100 1009.5
20260507010602 20 0 0.0 0.0 0.00 0.36 0.36 100 1009.4
20260507010118 20 0 0.0 0.0 0.00 0.36 0.36 100 1009.3
20260507005559 20 0 0.0 0.0 0.00 0.36 0.36 100 1009.3
20260507005058 20 0 0.0 0.0 0.00 0.36 0.36 100 1009.2
20260507004557 20 0 0.0 0.0 0.00 0.36 0.36 100 1009.3
20260507004059 20 0 0.0 0.0 0.00 0.36 0.36 100 1008.9
20260507003559 20 0 0.0 0.0 0.00 0.36 0.36 100 1009.0
20260507003059 20 0 0.0 3.2 0.00 0.36 0.36 1 1009.2
20260507002558 20 0 0.0 3.2 0.00 0.36 0.36 1 1009.0
20260507002058 20 0 0.0 3.2 0.00 0.36 0.36 2 1008.9
20260507001606 20 0 0.0 1.6 0.00 0.36 0.36 3 1009.1
20260507001101 20 0 0.0 1.6 0.00 0.36 0.36 3 1009.0
20260507000558 20 0 0.0 0.0 0.00 0.36 0.36 4 1009.0
20260507000059 20 0 0.0 1.6 0.00 0.36 0.36 6 1008.8
20260506235558 20 0 0.0 1.6 0.00 0.36 0.36 5 1008.9
20260506235103 20 0 0.0 0.0 0.00 0.36 0.36 6 1009.1
20260506234600 20 0 0.0 0.0 0.00 0.36 0.36 6 1008.8
20260506234058 20 0 0.0 0.0 0.00 0.36 0.36 7 1008.7
20260506233559 20 0 0.0 0.0 0.00 0.36 0.36 9 1008.8
20260506233059 21 0 0.0 0.0 0.00 0.36 0.36 9 1008.7
20260506232558 21 0 0.0 0.0 0.00 0.36 0.36 10 1008.5
20260506232058 21 0 0.0 1.6 0.00 0.36 0.36 10 1008.5
20260506231559 21 0 0.0 1.6 0.00 0.36 0.36 11 1008.5
20260506231058 21 0 0.0 1.6 0.00 0.36 0.36 10 1008.6
20260506230600 21 0 0.0 1.6 0.00 0.36 0.36 13 1008.7
20260506230104 21 0 0.0 1.6 0.00 0.36 0.36 13 1008.5
20260506225558 21 0 0.0 3.2 0.00 0.36 0.36 15 1008.2
20260506225059 21 0 0.0 3.2 0.00 0.36 0.36 16 1008.4
20260506224558 21 0 0.0 3.2 0.00 0.36 0.36 16 1008.5
20260506224101 21 0 0.0 3.2 0.00 0.36 0.36 18 1008.4
20260506223557 21 0 0.0 0.0 0.00 0.36 0.36 17 1008.4
20260506223058 21 0 0.0 1.6 0.00 0.36 0.36 16 1008.5
20260506222557 21 0 0.0 1.6 0.00 0.36 0.36 18 1008.5
20260506222058 21 0 0.0 1.6 0.00 0.36 0.36 20 1008.5
20260506221558 21 0 0.0 1.6 0.00 0.36 0.36 18 1008.5
20260506221101 21 0 0.0 0.0 0.00 0.36 0.36 18 1008.5
20260506220557 21 0 0.0 3.2 0.00 0.36 0.36 20 1008.5
20260506220057 21 0 0.0 3.2 0.00 0.36 0.36 21 1008.6
20260506215559 21 0 0.0 1.6 0.00 0.36 0.36 22 1008.6
20260506215058 21 0 0.0 1.6 0.00 0.36 0.36 21 1008.6
20260506214559 21 0 0.0 1.6 0.00 0.36 0.36 22 1008.5
20260506214059 21 0 0.0 0.0 0.00 0.36 0.36 23 1008.4
20260506213557 21 0 0.0 4.8 0.00 0.36 0.36 23 1008.4
20260506213058 21 0 0.0 4.8 0.00 0.36 0.36 24 1008.2
20260506212558 21 0 0.0 1.6 0.00 0.36 0.36 24 1008.2
20260506212058 21 0 0.0 1.6 0.00 0.36 0.36 23 1008.1
20260506211557 21 0 0.0 0.0 0.00 0.36 0.36 21 1008.2
20260506211058 21 0 0.0 0.0 0.00 0.36 0.36 20 1008.3
20260506210558 21 0 0.0 0.0 0.00 0.36 0.36 21 1008.1
20260506210058 21 0 0.0 0.0 0.00 0.36 0.36 18 1008.0
20260506205601 21 0 0.0 0.0 0.00 0.36 0.36 21 1008.0
20260506205057 21 0 0.0 0.0 0.00 0.36 0.36 22 1007.9
20260506204600 21 0 0.0 1.6 0.00 0.36 0.36 23 1008.1
20260506204057 21 0 0.0 1.6 0.00 0.36 0.36 23 1007.9
20260506203557 21 0 0.0 1.6 0.00 0.36 0.36 25 1008.1
20260506203059 21 0 0.0 1.6 0.00 0.36 0.36 27 1007.9
20260506202559 21 0 0.0 3.2 0.00 0.36 0.36 29 1007.8
20260506202058 21 0 0.0 12.9 0.00 0.36 0.36 31 1007.9
20260506201625 22 0 0.0 12.9 0.00 0.36 0.36 35 1007.9
20260506201057 22 0 0.0 8.0 0.00 0.36 0.36 28 1008.0
20260506200558 22 0 0.0 8.0 0.00 0.36 0.36 32 1007.9
20260506200058 22 0 0.0 3.2 0.00 0.36 0.36 32 1007.9
20260506195559 22 0 0.0 1.6 0.00 0.36 0.36 30 1007.8
20260506195058 22 0 0.0 1.6 0.00 0.36 0.36 26 1007.8
20260506194556 22 0 0.0 9.7 0.00 0.36 0.36 26 1008.0
20260506194101 22 0 0.0 9.7 0.00 0.36 0.36 26 1007.9
20260506193557 22 0 0.0 9.7 0.00 0.36 0.36 30 1008.0
20260506193058 21 0 0.0 4.8 0.00 0.36 0.36 24 1007.9
20260506192557 21 0 0.0 4.8 0.00 0.36 0.36 25 1008.0
20260506192057 21 0 0.0 1.6 0.00 0.36 0.36 18 1008.0
20260506191559 21 0 0.0 4.8 0.00 0.36 0.36 13 1008.1
20260506191057 21 0 0.0 4.8 0.00 0.36 0.36 18 1008.2
20260506190559 21 360 0.0 4.8 0.00 0.36 0.36 10 1008.3
20260506190058 21 207 0.0 11.3 0.00 0.36 0.36 7 1008.4
20260506185559 21 0 0.0 11.3 0.00 0.36 0.36 11 1008.5
20260506185059 20 0 0.0 8.0 0.00 0.36 0.36 10 1008.6
20260506184601 20 0 0.0 6.4 0.00 0.36 0.36 3 1008.7
20260506184058 20 0 0.0 8.0 0.00 0.36 0.36 3 1008.6
20260506183558 20 0 0.0 8.0 0.00 0.36 0.36 100 1008.5
20260506183059 20 0 0.0 17.7 0.00 0.36 0.36 3 1008.7
20260506182557 20 0 0.0 17.7 0.00 0.36 0.36 100 1008.8
20260506182057 20 0 0.0 17.7 0.00 0.36 0.36 2 1008.8
20260506181558 20 0 0.0 3.2 0.00 0.36 0.36 100 1008.7
20260506181059 20 0 0.0 3.2 0.00 0.36 0.36 100 1008.9
20260506180559 20 0 0.0 14.5 0.00 0.36 0.36 100 1008.9
20260506180059 19 0 1.6 14.5 0.00 0.36 0.36 100 1009.0
20260506175557 19 0 0.0 8.0 0.00 0.36 0.36 100 1008.9
20260506175057 19 0 0.0 8.0 0.00 0.36 0.36 100 1008.9
20260506174558 19 0 0.0 4.8 0.00 0.36 0.36 100 1009.0
20260506174058 19 0 0.0 4.8 0.00 0.36 0.36 100 1008.9
20260506173557 18 0 0.0 4.8 0.00 0.36 0.36 100 1009.0
20260506173120 18 0 0.0 3.2 0.00 0.36 0.36 100 1009.0
20260506172557 18 0 0.0 4.8 0.00 0.36 0.36 100 1009.1
20260506172057 18 0 0.0 11.3 0.00 0.36 0.36 100 1009.2
20260506171559 18 194 0.0 11.3 0.00 0.36 0.36 100 1009.2
20260506171058 18 0 0.0 4.8 0.00 0.36 0.36 100 1009.0
20260506170600 18 0 0.0 4.8 0.00 0.36 0.36 100 1009.1
20260506170057 17 0 0.0 4.8 0.00 0.36 0.36 100 1009.1
20260506165559 17 221 0.0 4.8 0.00 0.36 0.36 100 1009.4
20260506165058 17 198 0.0 4.8 0.00 0.36 0.36 100 1009.4
20260506164559 17 0 0.0 4.8 0.00 0.36 0.36 100 1009.5
20260506164057 17 0 0.0 3.2 0.00 0.36 0.36 100 1009.5
20260506163557 17 0 0.0 8.0 0.03 0.36 0.36 100 1009.5
20260506163109 17 0 0.0 8.0 0.03 0.36 0.36 100 1009.4
20260506162557 17 0 0.0 8.0 0.03 0.36 0.36 100 1009.4
20260506162057 17 0 0.0 8.0 0.03 0.36 0.36 100 1009.3
20260506161600 17 0 0.0 8.0 0.03 0.36 0.36 100 1009.4
20260506161057 17 0 0.0 8.0 0.03 0.36 0.36 100 1009.5
20260506160557 17 0 0.0 8.0 0.03 0.36 0.36 100 1009.5
20260506160057 17 0 0.0 8.0 0.05 0.36 0.36 100 1009.7
20260506155600 16 173 0.0 14.5 0.05 0.36 0.36 100 1009.8
20260506155057 16 196 0.0 14.5 0.10 0.36 0.36 100 1009.7
20260506154602 16 0 1.6 14.5 0.13 0.36 0.36 100 1009.7
20260506154058 16 0 0.0 11.3 0.18 0.36 0.36 100 1009.6
20260506153558 16 0 0.0 11.3 0.18 0.33 0.33 100 1009.4
20260506153056 16 0 0.0 3.2 0.18 0.33 0.33 100 1009.6
20260506152558 16 0 0.0 4.8 0.20 0.33 0.33 100 1009.9
20260506152058 16 0 0.0 9.7 0.20 0.33 0.33 100 1010.1
20260506151559 16 360 0.0 9.7 0.23 0.33 0.33 100 1010.1
20260506151057 16 0 0.0 6.4 0.25 0.33 0.33 100 1010.3
20260506150601 16 0 0.0 6.4 0.28 0.33 0.33 100 1010.4
20260506150057 16 0 0.0 3.2 0.25 0.30 0.30 100 1010.4
20260506145600 16 0 0.0 3.2 0.28 0.30 0.30 100 1010.4
20260506145057 16 0 0.0 3.2 0.23 0.25 0.25 100 1010.4
20260506144559 16 0 0.0 3.2 0.20 0.20 0.20 100 1010.6
20260506144057 16 0 0.0 3.2 0.18 0.18 0.18 100 1010.3
20260506143557 16 0 0.0 3.2 0.15 0.15 0.15 100 1010.4
20260506143056 16 0 0.0 1.6 0.15 0.15 0.15 100 1010.3
20260506142558 17 0 0.0 1.6 0.13 0.13 0.13 100 1010.3
20260506142057 17 0 0.0 6.4 0.13 0.13 0.13 100 1010.3
20260506141558 17 0 0.0 6.4 0.10 0.10 0.10 100 1010.3
20260506141057 17 0 0.0 6.4 0.08 0.08 0.08 100 1010.5
20260506140601 17 202 0.0 4.8 0.05 0.05 0.05 100 1010.4
20260506135557 18 0 0.0 3.2 0.03 0.03 0.03 4 1010.7
20260506135057 18 0 0.0 0.0 0.03 0.03 0.03 16 1010.7
20260506134557 18 0 0.0 1.6 0.00 0.00 0.00 21 1010.9
20260506134059 18 0 0.0 1.6 0.00 0.00 0.00 23 1010.9
20260506133601 18 0 0.0 1.6 0.00 0.00 0.00 26 1010.9
20260506133103 18 0 0.0 3.2 0.00 0.00 0.00 32 1010.8
20260506132557 18 0 0.0 3.2 0.00 0.00 0.00 35 1010.6
20260506132057 18 0 0.0 4.8 0.00 0.00 0.00 36 1010.5
20260506131600 18 0 0.0 4.8 0.00 0.00 0.00 38 1010.4
20260506131055 18 209 0.0 1.6 0.00 0.00 0.00 38 1010.3
20260506130557 18 0 0.0 6.4 0.00 0.00 0.00 36 1010.3
20260506130057 18 0 0.0 6.4 0.00 0.00 0.00 39 1010.1
20260506125557 18 0 0.0 3.2 0.00 0.00 0.00 39 1010.1
20260506125057 18 0 0.0 4.8 0.00 0.00 0.00 40 1010.1
20260506124600 18 143 0.0 4.8 0.00 0.00 0.00 43 1010.2
20260506124101 18 0 0.0 6.4 0.00 0.00 0.00 43 1010.3
20260506123557 18 0 0.0 6.4 0.00 0.00 0.00 43 1010.4
20260506123058 18 0 0.0 3.2 0.00 0.00 0.00 42 1010.4
20260506122557 18 0 0.0 8.0 0.00 0.00 0.00 42 1010.7
20260506122058 18 0 0.0 8.0 0.00 0.00 0.00 44 1010.7
20260506121605 18 0 0.0 1.6 0.00 0.00 0.00 45 1010.6
20260506121058 18 0 0.0 6.4 0.00 0.00 0.00 47 1010.7
20260506120558 18 0 0.0 8.0 0.00 0.00 0.00 48 1010.7
20260506120111 18 0 0.0 8.0 0.00 0.00 0.00 49 1010.6
20260506115557 19 0 0.0 4.8 0.00 0.00 0.00 49 1010.5
20260506115057 19 0 0.0 4.8 0.00 0.00 0.00 48 1010.4
20260506114619 19 208 0.0 3.2 0.00 0.00 0.00 48 1010.4
20260506114057 19 0 0.0 8.0 0.00 0.00 0.00 47 1010.3
20260506113556 19 0 0.0 8.0 0.00 0.00 0.00 47 1010.2
20260506113058 18 0 0.0 4.8 0.00 0.00 0.00 46 1010.1
20260506112601 18 0 0.0 8.0 0.00 0.00 0.00 45 1010.0
20260506112057 18 0 0.0 8.0 0.00 0.00 0.00 45 1010.1
20260506111557 18 0 0.0 9.7 0.00 0.00 0.00 44 1010.2
20260506111057 18 0 0.0 9.7 0.00 0.00 0.00 44 1010.0
20260506110601 18 144 0.0 9.7 0.00 0.00 0.00 44 1009.9
20260506110058 18 0 0.0 16.1 0.00 0.00 0.00 44 1009.8
20260506105601 18 0 1.6 16.1 0.00 0.00 0.00 44 1009.8
20260506105058 18 0 0.0 4.8 0.00 0.00 0.00 44 1009.9
20260506104555 18 0 0.0 3.2 0.00 0.00 0.00 44 1009.8
20260506104057 18 0 0.0 16.1 0.00 0.00 0.00 44 1009.7
20260506103557 18 0 0.0 16.1 0.00 0.00 0.00 45 1009.7
20260506103055 18 0 0.0 4.8 0.00 0.00 0.00 45 1009.7
20260506102558 18 0 0.0 3.2 0.00 0.00 0.00 45 1009.7
20260506102056 18 0 0.0 3.2 0.00 0.00 0.00 45 1009.8
20260506101557 18 0 0.0 3.2 0.00 0.00 0.00 45 1009.8
20260506101057 18 188 0.0 3.2 0.00 0.00 0.00 47 1009.7
20260506100557 18 0 0.0 3.2 0.00 0.00 0.00 47 1009.7
20260506100057 18 0 0.0 3.2 0.00 0.00 0.00 47 1009.7
20260506095557 18 0 0.0 1.6 0.00 0.00 0.00 48 1009.7
20260506095057 18 0 0.0 4.8 0.00 0.00 0.00 48 1009.9
20260506094557 18 0 0.0 8.0 0.00 0.00 0.00 48 1009.8
20260506094057 18 0 0.0 8.0 0.00 0.00 0.00 48 1009.8
20260506093557 18 0 0.0 8.0 0.00 0.00 0.00 49 1009.8
20260506093111 18 0 0.0 8.0 0.00 0.00 0.00 50 1009.8
20260506092558 18 0 0.0 12.9 0.00 0.00 0.00 50 1009.7
20260506092058 18 0 0.0 12.9 0.00 0.00 0.00 51 1009.8
20260506091555 18 0 0.0 12.9 0.00 0.00 0.00 51 1009.9
20260506091057 19 0 0.0 11.3 0.00 0.00 0.00 52 1009.9
20260506090557 19 0 0.0 11.3 0.00 0.00 0.00 53 1009.8
20260506090103 19 0 0.0 6.4 0.00 0.00 0.00 53 1009.9
20260506085557 19 0 0.0 1.6 0.00 0.00 0.00 54 1010.0
20260506085057 19 0 0.0 11.3 0.00 0.00 0.00 54 1010.0
20260506084556 19 0 0.0 11.3 0.00 0.00 0.00 55 1009.9
20260506084055 19 0 0.0 4.8 0.00 0.00 0.00 55 1009.9
20260506083555 20 0 0.0 6.4 0.00 0.00 0.00 56 1010.0
20260506083058 20 0 0.0 6.4 0.00 0.00 0.00 56 1009.9
20260506082601 20 202 0.0 4.8 0.00 0.00 0.00 56 1009.9
20260506082058 20 0 0.0 4.8 0.00 0.00 0.00 57 1009.9
20260506081557 20 0 0.0 8.0 0.00 0.00 0.00 57 1009.8
20260506081057 20 191 0.0 8.0 0.00 0.00 0.00 57 1009.9
20260506080558 20 157 0.0 6.4 0.00 0.00 0.00 58 1009.8
20260506080110 20 0 0.0 4.8 0.00 0.00 0.00 58 1009.8